• In Österreich
  • Länderverzeichnis
  • Für 7 Tage
  • Wassertemperatur
  • Satellitenkarten
  • Wetterkarte
  • News
  • Widgets
  • user-avatar
    Anmelden

    Stündliche Wetter Cegielsko

    Heute, 23 Juli, Montag

    Zeit Temperatur Niederschläge Wind Luftdruck Luftfeuchtigkeit
    00:00 +19°C° 0 mm 2 m/S 753 mmHg 73%
    01:00 +19°C° 0 mm 2 m/S 753 mmHg 73%
    02:00 +20°C° 0 mm 1 m/S 753 mmHg 76%
    03:00 +19°C° 0 mm 1 m/S 753 mmHg 78%
    04:00 +19°C° 0 mm 1 m/S 753 mmHg 81%
    05:00 +20°C° 0 mm 1 m/S 753 mmHg 76%
    06:00 +22°C° 0 mm 1 m/S 753 mmHg 71%
    07:00 +23°C° 0 mm 1 m/S 754 mmHg 66%
    08:00 +25°C° 0 mm 1 m/S 754 mmHg 61%
    09:00 +26°C° 0 mm 2 m/S 754 mmHg 55%
    10:00 +28°C° 0 mm 2 m/S 754 mmHg 50%
    11:00 +28°C° 0 mm 2 m/S 754 mmHg 48%
    12:00 +29°C° 0 mm 2 m/S 754 mmHg 46%
    13:00 +30°C° 0 mm 3 m/S 753 mmHg 43%
    14:00 +30°C° 0 mm 3 m/S 753 mmHg 44%
    15:00 +29°C° 0 mm 3 m/S 753 mmHg 44%
    16:00 +29°C° 0 mm 3 m/S 753 mmHg 44%
    17:00 +28°C° 0 mm 2 m/S 753 mmHg 48%
    18:00 +27°C° 0 mm 2 m/S 753 mmHg 53%
    19:00 +26°C° 0 mm 2 m/S 753 mmHg 57%
    20:00 +25°C° 0 mm 2 m/S 754 mmHg 63%
    21:00 +23°C° 0 mm 2 m/S 754 mmHg 69%
    22:00 +21°C° 0 mm 2 m/S 754 mmHg 75%
    23:00 +20°C° 0 mm 2 m/S 754 mmHg 79%

    Morgen, 24 Juli, Dienstag

    Zeit Temperatur Niederschläge Wind Luftdruck Luftfeuchtigkeit
    00:00 +19°C° 0 mm 2 m/S 754 mmHg 83%
    01:00 +19°C° 0 mm 2 m/S 754 mmHg 87%
    02:00 +18°C° 0 mm 2 m/S 754 mmHg 88%
    03:00 +18°C° 0 mm 2 m/S 754 mmHg 88%
    04:00 +17°C° 0 mm 2 m/S 754 mmHg 89%
    05:00 +18°C° 0 mm 2 m/S 755 mmHg 84%
    06:00 +20°C° 0 mm 2 m/S 755 mmHg 78%
    07:00 +21°C° 0 mm 2 m/S 755 mmHg 73%
    08:00 +23°C° 0 mm 2 m/S 755 mmHg 67%
    09:00 +25°C° 0 mm 2 m/S 755 mmHg 61%
    10:00 +26°C° 0 mm 2 m/S 755 mmHg 55%
    11:00 +27°C° 0 mm 2 m/S 754 mmHg 53%
    12:00 +28°C° 0 mm 3 m/S 754 mmHg 51%
    13:00 +29°C° 0 mm 3 m/S 754 mmHg 49%
    14:00 +29°C° 0,1 mm 3 m/S 753 mmHg 50%
    15:00 +29°C° 0,1 mm 3 m/S 753 mmHg 51%
    16:00 +29°C° 0,1 mm 3 m/S 753 mmHg 52%
    17:00 +28°C° 0,1 mm 3 m/S 753 mmHg 58%
    18:00 +27°C° 0,1 mm 2 m/S 753 mmHg 64%
    19:00 +26°C° 0,1 mm 2 m/S 753 mmHg 70%
    20:00 +25°C° 0 mm 2 m/S 753 mmHg 76%
    21:00 +24°C° 0 mm 2 m/S 753 mmHg 81%
    22:00 +21°C° 0 mm 2 m/S 754 mmHg 86%
    23:00 +21°C° 0 mm 2 m/S 754 mmHg 88%

    übermorgen, 25 Juli, Mittwoch

    Zeit Temperatur Niederschläge Wind Luftdruck Luftfeuchtigkeit
    00:00 +20°C° 0 mm 2 m/S 754 mmHg 91%
    01:00 +20°C° 0 mm 2 m/S 753 mmHg 93%
    02:00 +19°C° 0 mm 2 m/S 754 mmHg 94%
    03:00 +19°C° 0 mm 2 m/S 754 mmHg 94%
    04:00 +19°C° 0 mm 2 m/S 754 mmHg 95%
    05:00 +20°C° 0 mm 2 m/S 754 mmHg 90%
    06:00 +21°C° 0 mm 2 m/S 754 mmHg 85%
    07:00 +23°C° 0 mm 2 m/S 754 mmHg 80%
    08:00 +25°C° 0,1 mm 2 m/S 754 mmHg 73%
    09:00 +26°C° 0,1 mm 2 m/S 754 mmHg 66%
    10:00 +28°C° 0,1 mm 2 m/S 754 mmHg 59%
    11:00 +28°C° 0,1 mm 3 m/S 754 mmHg 56%
    12:00 +29°C° 0,1 mm 3 m/S 754 mmHg 53%
    13:00 +30°C° 0,1 mm 4 m/S 753 mmHg 50%
    14:00 +30°C° 0,2 mm 4 m/S 753 mmHg 50%
    15:00 +30°C° 0,2 mm 4 m/S 753 mmHg 49%
    16:00 +30°C° 0,2 mm 4 m/S 753 mmHg 48%
    17:00 +29°C° 0,1 mm 3 m/S 753 mmHg 53%
    18:00 +28°C° 0,1 mm 3 m/S 753 mmHg 57%
    19:00 +27°C° 0,1 mm 2 m/S 753 mmHg 62%
    20:00 +26°C° 0 mm 2 m/S 753 mmHg 65%
    21:00 +24°C° 0 mm 2 m/S 754 mmHg 69%
    22:00 +23°C° 0 mm 2 m/S 754 mmHg 72%
    23:00 +21°C° 0 mm 2 m/S 754 mmHg 76%

    26 Juli, Donnerstag

    Zeit Temperatur Niederschläge Wind Luftdruck Luftfeuchtigkeit
    00:00 +20°C° 0 mm 2 m/S 754 mmHg 79%
    01:00 +20°C° 0 mm 2 m/S 754 mmHg 82%
    02:00 +19°C° 0 mm 2 m/S 754 mmHg 85%
    03:00 +19°C° 0 mm 2 m/S 754 mmHg 88%
    04:00 +18°C° 0 mm 2 m/S 754 mmHg 90%
    05:00 +19°C° 0 mm 2 m/S 755 mmHg 86%
    06:00 +21°C° 0 mm 2 m/S 755 mmHg 82%
    07:00 +23°C° 0 mm 2 m/S 755 mmHg 78%
    08:00 +25°C° 0 mm 3 m/S 755 mmHg 71%
    09:00 +27°C° 0 mm 3 m/S 755 mmHg 64%
    10:00 +28°C° 0 mm 3 m/S 755 mmHg 57%
    11:00 +29°C° 0 mm 3 m/S 755 mmHg 53%
    12:00 +30°C° 0 mm 4 m/S 754 mmHg 48%
    13:00 +32°C° 0 mm 4 m/S 754 mmHg 44%
    14:00 +32°C° 0 mm 4 m/S 754 mmHg 44%
    15:00 +32°C° 0 mm 4 m/S 754 mmHg 43%
    16:00 +32°C° 0 mm 4 m/S 754 mmHg 43%
    17:00 +30°C° 0 mm 4 m/S 754 mmHg 48%
    18:00 +29°C° 0 mm 3 m/S 754 mmHg 54%
    19:00 +27°C° 0 mm 3 m/S 754 mmHg 60%
    20:00 +26°C° 0 mm 3 m/S 754 mmHg 64%
    21:00 +25°C° 0 mm 3 m/S 754 mmHg 69%
    22:00 +24°C° 0 mm 3 m/S 754 mmHg 74%
    23:00 +22°C° 0 mm 3 m/S 754 mmHg 77%

    27 Juli, Freitag

    Zeit Temperatur Niederschläge Wind Luftdruck Luftfeuchtigkeit
    00:00 +21°C° 0 mm 3 m/S 754 mmHg 81%
    01:00 +21°C° 0 mm 3 m/S 754 mmHg 84%
    02:00 +20°C° 0 mm 3 m/S 754 mmHg 87%
    03:00 +20°C° 0 mm 2 m/S 754 mmHg 90%
    04:00 +20°C° 0 mm 2 m/S 754 mmHg 92%
    05:00 +21°C° 0,4 mm 2 m/S 754 mmHg 90%
    06:00 +22°C° 0,4 mm 3 m/S 754 mmHg 87%
    07:00 +24°C° 0,4 mm 3 m/S 754 mmHg 85%
    08:00 +25°C° 0,2 mm 3 m/S 754 mmHg 78%
    09:00 +27°C° 0,2 mm 3 m/S 754 mmHg 72%
    10:00 +28°C° 0,2 mm 3 m/S 753 mmHg 66%
    11:00 +29°C° 0,7 mm 3 m/S 753 mmHg 63%
    12:00 +30°C° 0,7 mm 3 m/S 753 mmHg 60%
    13:00 +30°C° 0,7 mm 3 m/S 753 mmHg 57%
    14:00 +31°C° 0 mm 3 m/S 752 mmHg 55%
    15:00 +31°C° 0 mm 3 m/S 752 mmHg 53%
    16:00 +31°C° 0 mm 3 m/S 752 mmHg 51%
    17:00 +30°C° 0,1 mm 3 m/S 752 mmHg 57%
    18:00 +29°C° 0,1 mm 3 m/S 752 mmHg 63%
    19:00 +28°C° 0,1 mm 2 m/S 752 mmHg 69%
    20:00 +27°C° 0,2 mm 2 m/S 752 mmHg 73%
    21:00 +26°C° 0,2 mm 2 m/S 752 mmHg 78%
    22:00 +25°C° 0,2 mm 2 m/S 752 mmHg 83%
    23:00 +24°C° 1,5 mm 2 m/S 752 mmHg 85%

    28 Juli, Samstag

    Zeit Temperatur Niederschläge Wind Luftdruck Luftfeuchtigkeit
    00:00 +24°C° 1,5 mm 2 m/S 752 mmHg 88%
    01:00 +23°C° 1,5 mm 2 m/S 752 mmHg 91%
    02:00 +23°C° 0,1 mm 2 m/S 752 mmHg 91%
    03:00 +23°C° 0,1 mm 2 m/S 752 mmHg 92%
    04:00 +23°C° 0,1 mm 2 m/S 751 mmHg 92%
    05:00 +23°C° 0,5 mm 2 m/S 751 mmHg 88%
    06:00 +24°C° 0,5 mm 2 m/S 752 mmHg 85%
    07:00 +25°C° 0,5 mm 3 m/S 752 mmHg 81%
    08:00 +27°C° 0,2 mm 3 m/S 751 mmHg 74%
    09:00 +28°C° 0,2 mm 3 m/S 751 mmHg 67%
    10:00 +30°C° 0,2 mm 3 m/S 751 mmHg 60%
    11:00 +31°C° 0,2 mm 3 m/S 751 mmHg 56%
    12:00 +31°C° 0,2 mm 3 m/S 751 mmHg 52%
    13:00 +32°C° 0,2 mm 2 m/S 751 mmHg 48%
    14:00 +32°C° 0 mm 2 m/S 751 mmHg 49%
    15:00 +32°C° 0 mm 2 m/S 751 mmHg 49%
    16:00 +32°C° 0 mm 2 m/S 751 mmHg 50%
    17:00 +31°C° 0,1 mm 2 m/S 751 mmHg 54%
    18:00 +30°C° 0,1 mm 2 m/S 751 mmHg 58%
    19:00 +29°C° 0,1 mm 1 m/S 751 mmHg 63%
    20:00 +28°C° 0 mm 1 m/S 751 mmHg 65%
    21:00 +27°C° 0 mm 1 m/S 752 mmHg 67%
    22:00 +26°C° 0 mm 1 m/S 752 mmHg 69%
    23:00 +26°C° 0 mm 1 m/S 752 mmHg 70%
    Mehr zeigen